Dades meteomassalio
Diari Summary for Juny 4, 2017 Units:  Metric    English   Both
« Previous Day
Next Day »
Diari Semanal Mensual Anual Personalitzat
  Maxima: Minima: Mijana:
Temperatura: 18.2 °C 13.7 °C 15.6 °C
Rosada: 16.0 °C 11.9 °C 13.6 °C
Humitat: 93 % 78 % 88 %
Velocitat del vent: 38.9 km/h 0.0 km/h 4.9 km/h
Racha vent: 38.9 km/h - -
Vent:- - SW
Pressio: 1019.9 hPa 1014.8 hPa -
Pluja: 33.5 mm    
Historical Graphs
 
 
Tabular Data for Juny 4, 2017
Time Temperature Dew Point Pressure Wind Wind Speed Wind Gust Humidity Rainfall Rate (Hourly) solar Conditions
00:02 18.1 °C 14.6 °C 1018.8 hPa WSW 7.4 km/h 7.4 km/h 80 % 0.0 mm 0.0 W/m2 RA
00:07 18.1 °C 14.6 °C 1018.8 hPa Calm     80 % 0.0 mm 0.0 W/m2 CLR
00:12 18.2 °C 14.4 °C 1018.8 hPa WSW 7.4 km/h 7.4 km/h 79 % 0.0 mm 0.0 W/m2 CLR
00:17 18.2 °C 14.5 °C 1018.8 hPa WSW 4.8 km/h 4.8 km/h 79 % 0.0 mm 0.0 W/m2 CLR
00:22 18.2 °C 14.4 °C 1018.5 hPa Calm     79 % 0.0 mm 0.0 W/m2 CLR
00:27 18.2 °C 14.3 °C 1018.5 hPa West 11.1 km/h 11.1 km/h 78 % 0.0 mm 0.0 W/m2 CLR
00:32 18.2 °C 14.3 °C 1018.5 hPa West 9.3 km/h 9.3 km/h 78 % 0.0 mm 0.0 W/m2 CLR
00:37 18.2 °C 14.3 °C 1018.5 hPa West 9.3 km/h 9.3 km/h 78 % 0.0 mm 0.0 W/m2 CLR
00:42 18.1 °C 14.2 °C 1018.5 hPa Calm     78 % 0.0 mm 0.0 W/m2 CLR
00:47 17.9 °C 14.2 °C 1018.5 hPa West 7.4 km/h 7.4 km/h 79 % 0.0 mm 0.0 W/m2 CLR
00:52 17.9 °C 14.2 °C 1018.5 hPa Calm     79 % 0.0 mm 0.0 W/m2 CLR
00:57 17.8 °C 14.3 °C 1018.5 hPa Calm     80 % 0.0 mm 0.0 W/m2 CLR
01:02 17.6 °C 14.1 °C 1018.5 hPa Calm     80 % 0.0 mm 0.0 W/m2 CLR
01:07 17.4 °C 14.2 °C 1018.5 hPa Calm     81 % 0.0 mm 0.0 W/m2 CLR
01:12 17.3 °C 14.2 °C 1018.5 hPa Calm     82 % 0.0 mm 0.0 W/m2 CLR
01:17 17.2 °C 14.1 °C 1018.5 hPa Calm     82 % 0.0 mm 0.0 W/m2 CLR
01:22 17.1 °C 14.0 °C 1018.5 hPa Calm     82 % 0.0 mm 0.0 W/m2 CLR
01:23 17.1 °C 14.0 °C 1018.5 hPa Calm     82 % 0.0 mm 0.0 W/m2 CLR
01:28 17.2 °C 14.1 °C 1018.5 hPa Calm     82 % 0.0 mm 0.0 W/m2 CLR
01:33 17.2 °C 14.1 °C 1018.5 hPa Calm     82 % 0.0 mm 0.0 W/m2 CLR
01:38 17.2 °C 14.1 °C 1018.2 hPa West 7.4 km/h 7.4 km/h 82 % 0.0 mm 0.0 W/m2 CLR
01:43 17.2 °C 14.1 °C 1018.5 hPa Calm     82 % 0.0 mm 0.0 W/m2 CLR
01:48 17.2 °C 13.9 °C 1018.5 hPa WNW 7.4 km/h 7.4 km/h 81 % 0.0 mm 0.0 W/m2 CLR
01:53 17.2 °C 13.9 °C 1018.5 hPa West 9.3 km/h 9.3 km/h 81 % 0.0 mm 0.0 W/m2 CLR
01:58 17.2 °C 13.9 °C 1018.5 hPa Calm     81 % 0.0 mm 0.0 W/m2 CLR
02:03 17.2 °C 13.9 °C 1018.5 hPa Calm     81 % 0.0 mm 0.0 W/m2 CLR
02:08 17.2 °C 13.9 °C 1018.5 hPa Calm     81 % 0.0 mm 0.0 W/m2 CLR
02:13 17.1 °C 13.8 °C 1018.5 hPa Calm     81 % 0.0 mm 0.0 W/m2 CLR
02:18 17.0 °C 13.7 °C 1018.5 hPa Calm     81 % 0.0 mm 0.0 W/m2 CLR
02:23 16.9 °C 13.7 °C 1018.5 hPa Calm     81 % 0.0 mm 0.0 W/m2 CLR
02:28 16.8 °C 13.6 °C 1018.5 hPa Calm     81 % 0.0 mm 0.0 W/m2 CLR
02:33 16.7 °C 13.6 °C 1018.5 hPa Calm     82 % 0.0 mm 0.0 W/m2 CLR
02:38 16.6 °C 13.5 °C 1018.5 hPa Calm     82 % 0.0 mm 0.0 W/m2 CLR
02:43 16.6 °C 13.4 °C 1018.5 hPa WNW 7.4 km/h 7.4 km/h 82 % 0.0 mm 0.0 W/m2 CLR
02:48 16.5 °C 13.4 °C 1018.5 hPa West 7.4 km/h 7.4 km/h 82 % 0.0 mm 0.0 W/m2 CLR
02:53 16.4 °C 13.3 °C 1018.5 hPa NW 7.4 km/h 7.4 km/h 82 % 0.0 mm 0.0 W/m2 CLR
02:58 16.3 °C 13.2 °C 1018.8 hPa West 7.4 km/h 7.4 km/h 82 % 0.0 mm 0.0 W/m2 CLR
03:03 16.2 °C 13.2 °C 1018.8 hPa Calm     82 % 0.0 mm 0.0 W/m2 CLR
03:08 16.1 °C 13.1 °C 1018.8 hPa Calm     82 % 0.0 mm 0.0 W/m2 CLR
03:13 16.0 °C 12.9 °C 1018.8 hPa Calm     82 % 0.0 mm 0.0 W/m2 CLR
03:19 15.9 °C 13.1 °C 1018.5 hPa Calm     83 % 0.0 mm 0.0 W/m2 CLR
03:24 15.8 °C 12.9 °C 1018.8 hPa Calm     83 % 0.0 mm 0.0 W/m2 CLR
03:29 15.8 °C 12.9 °C 1018.8 hPa Calm     83 % 0.0 mm 0.0 W/m2 CLR
03:34 15.7 °C 12.8 °C 1018.8 hPa Calm     83 % 0.0 mm 0.0 W/m2 CLR
03:39 15.6 °C 12.9 °C 1018.8 hPa Calm     84 % 0.0 mm 0.0 W/m2 CLR
03:44 15.4 °C 12.8 °C 1018.8 hPa Calm     84 % 0.0 mm 0.0 W/m2 CLR
03:49 15.4 °C 12.9 °C 1018.8 hPa Calm     85 % 0.0 mm 0.0 W/m2 CLR
03:54 15.3 °C 12.8 °C 1018.8 hPa Calm     85 % 0.0 mm 0.0 W/m2 CLR
03:56 15.2 °C 12.7 °C 1018.8 hPa Calm     85 % 0.0 mm 0.0 W/m2 CLR
04:01 15.2 °C 12.8 °C 1018.8 hPa Calm     86 % 0.0 mm 0.0 W/m2 CLR
04:06 15.1 °C 12.7 °C 1018.8 hPa Calm     86 % 0.0 mm 0.0 W/m2 CLR
04:11 14.9 °C 12.6 °C 1018.5 hPa Calm     86 % 0.0 mm 0.0 W/m2 CLR
04:16 14.9 °C 12.7 °C 1018.5 hPa Calm     87 % 0.0 mm 0.0 W/m2 CLR
04:21 14.8 °C 12.7 °C 1018.5 hPa Calm     87 % 0.0 mm 0.0 W/m2 CLR
04:26 14.8 °C 12.6 °C 1018.8 hPa Calm     87 % 0.0 mm 0.0 W/m2 CLR
04:31 14.8 °C 12.8 °C 1018.8 hPa Calm     88 % 0.0 mm 0.0 W/m2 CLR
04:36 14.7 °C 12.8 °C 1018.8 hPa Calm     88 % 0.0 mm 0.0 W/m2 CLR
04:41 14.7 °C 12.7 °C 1018.5 hPa Calm     88 % 0.0 mm 0.0 W/m2 CLR
04:46 14.6 °C 12.6 °C 1018.5 hPa Calm     88 % 0.0 mm 0.0 W/m2 CLR
04:51 14.5 °C 12.6 °C 1018.5 hPa Calm     88 % 0.0 mm 0.0 W/m2 CLR
04:56 14.4 °C 12.5 °C 1018.8 hPa Calm     88 % 0.0 mm 0.0 W/m2 CLR
05:01 14.4 °C 12.7 °C 1018.8 hPa Calm     89 % 0.0 mm 0.0 W/m2 CLR
05:06 14.4 °C 12.6 °C 1018.8 hPa Calm     89 % 0.0 mm 0.0 W/m2 CLR
05:11 14.4 °C 12.6 °C 1018.8 hPa Calm     89 % 0.0 mm 0.0 W/m2 CLR
05:16 14.4 °C 12.6 °C 1018.5 hPa Calm     89 % 0.0 mm 0.0 W/m2 CLR
05:21 14.4 °C 12.6 °C 1018.5 hPa Calm     89 % 0.0 mm 0.0 W/m2 CLR
05:26 14.3 °C 12.6 °C 1018.5 hPa Calm     89 % 0.0 mm 0.0 W/m2 CLR
05:31 14.3 °C 12.7 °C 1018.2 hPa Calm     90 % 0.0 mm 0.0 W/m2 CLR
05:36 14.3 °C 12.7 °C 1018.2 hPa Calm     90 % 0.0 mm 0.0 W/m2 CLR
05:41 14.2 °C 12.6 °C 1018.2 hPa Calm     90 % 0.0 mm 0.0 W/m2 CLR
05:46 14.2 °C 12.6 °C 1017.8 hPa Calm     90 % 0.0 mm 0.0 W/m2 CLR
05:51 14.1 °C 12.5 °C 1018.2 hPa Calm     90 % 0.0 mm 0.0 W/m2 CLR
05:56 14.1 °C 12.4 °C 1018.2 hPa Calm     90 % 0.0 mm 0.0 W/m2 CLR
06:01 13.9 °C 12.3 °C 1018.2 hPa Calm     90 % 0.0 mm 0.0 W/m2 CLR
06:06 13.9 °C 12.3 °C 1017.8 hPa Calm     90 % 0.0 mm 0.0 W/m2 CLR
06:11 13.9 °C 12.4 °C 1017.8 hPa Calm     91 % 0.0 mm 0.0 W/m2 CLR
06:16 13.9 °C 12.4 °C 1017.8 hPa Calm     91 % 0.0 mm 0.0 W/m2 CLR
06:21 13.9 °C 12.4 °C 1017.8 hPa Calm     91 % 0.0 mm 0.0 W/m2 OVC
06:26 14.0 °C 12.6 °C 1017.8 hPa Calm     91 % 0.0 mm 0.0 W/m2 OVC
06:31 13.9 °C 12.5 °C 1017.8 hPa Calm     91 % 0.0 mm 0.0 W/m2 OVC
06:36 13.9 °C 12.5 °C 1018.2 hPa Calm     91 % 0.0 mm 5.0 W/m2 OVC
06:41 13.9 °C 12.5 °C 1018.2 hPa Calm     91 % 0.0 mm 9.0 W/m2 BKN
06:46 13.9 °C 12.5 °C 1018.2 hPa Calm     91 % 0.0 mm 11.0 W/m2 BKN
06:51 13.9 °C 12.3 °C 1018.2 hPa Calm     90 % 0.0 mm 12.0 W/m2 BKN
06:56 14.0 °C 12.6 °C 1018.5 hPa Calm     91 % 0.0 mm 16.0 W/m2 BKN
07:01 14.1 °C 12.6 °C 1018.5 hPa Calm     91 % 0.0 mm 21.0 W/m2 BKN
07:06 14.1 °C 12.5 °C 1018.5 hPa Calm     90 % 0.0 mm 23.0 W/m2 BKN
07:11 14.1 °C 12.5 °C 1018.5 hPa Calm     90 % 0.0 mm 26.0 W/m2 BKN
07:16 14.2 °C 12.6 °C 1018.5 hPa Calm     90 % 0.0 mm 28.0 W/m2 BKN
07:21 14.3 °C 12.7 °C 1018.5 hPa Calm     90 % 0.0 mm 35.0 W/m2 BKN
07:26 14.3 °C 12.5 °C 1018.5 hPa NW 6.4 km/h 6.4 km/h 89 % 0.0 mm 42.0 W/m2 BKN
07:31 14.3 °C 12.4 °C 1018.5 hPa WNW 5.6 km/h   88 % 0.0 mm 44.0 W/m2 BKN
07:36 14.4 °C 12.3 °C 1018.5 hPa NW 5.6 km/h 5.6 km/h 87 % 0.0 mm 44.0 W/m2 BKN
07:41 14.4 °C 12.3 °C 1018.8 hPa Calm     87 % 0.0 mm 40.0 W/m2 BKN
07:46 14.4 °C 12.1 °C 1018.8 hPa WNW 3.7 km/h   86 % 0.0 mm 47.0 W/m2 BKN
07:51 14.5 °C 12.2 °C 1018.5 hPa Calm     86 % 0.0 mm 63.0 W/m2 SCT
07:56 14.5 °C 12.2 °C 1018.8 hPa Calm     86 % 0.0 mm 76.0 W/m2 SCT
08:01 14.6 °C 12.3 °C 1018.8 hPa Calm     86 % 0.0 mm 42.0 W/m2 SCT
08:06 14.6 °C 12.1 °C 1018.8 hPa WNW 3.7 km/h 3.7 km/h 85 % 0.0 mm 21.0 W/m2 SCT
08:11 14.6 °C 12.1 °C 1018.8 hPa NW 5.6 km/h 5.6 km/h 85 % 0.0 mm 14.0 W/m2 BKN
08:16 14.6 °C 12.1 °C 1019.2 hPa Calm     85 % 0.0 mm 14.0 W/m2 BKN
08:21 14.6 °C 12.2 °C 1018.8 hPa Calm     86 % 0.0 mm 26.0 W/m2 BKN
08:26 14.4 °C 12.1 °C 1019.2 hPa ENE 3.2 km/h 3.2 km/h 86 % 0.0 mm 32.0 W/m2 BKN
08:31 14.4 °C 12.3 °C 1019.2 hPa Calm     87 % 0.3 mm 33.0 W/m2 RA
08:36 14.3 °C 12.2 °C 1019.2 hPa Calm     87 % 0.3 mm 26.0 W/m2 BKN
08:41 14.3 °C 12.3 °C 1019.5 hPa Calm     88 % 0.3 mm 25.0 W/m2 BKN
08:46 14.2 °C 12.3 °C 1019.5 hPa Calm     88 % 0.3 mm 18.0 W/m2 BKN
08:51 14.1 °C 12.2 °C 1019.5 hPa West 1.6 km/h   88 % 0.5 mm 16.0 W/m2 RA
08:56 14.1 °C 12.3 °C 1019.5 hPa Calm     89 % 1.0 mm 18.0 W/m2 RA
09:01 14.0 °C 12.2 °C 1019.5 hPa Calm     89 % 1.0 mm 23.0 W/m2 BKN
09:06 13.9 °C 12.2 °C 1019.9 hPa Calm     89 % 1.0 mm 21.0 W/m2 BKN
09:11 13.9 °C 12.1 °C 1019.9 hPa Calm     89 % 1.0 mm 19.0 W/m2 BKN
09:16 13.9 °C 12.3 °C 1019.9 hPa Calm     90 % 1.0 mm 21.0 W/m2 BKN
09:21 13.8 °C 12.2 °C 1019.9 hPa Calm     90 % 1.0 mm 21.0 W/m2 BKN
09:41 13.7 °C 11.9 °C 1019.9 hPa ENE 5.6 km/h   89 % 1.0 mm 42.0 W/m2 SCT
09:46 13.7 °C 11.9 °C 1019.9 hPa Calm     89 % 1.0 mm 30.0 W/m2 BKN
09:51 13.7 °C 11.9 °C 1019.5 hPa Calm     89 % 0.8 mm 39.0 W/m2 BKN
09:56 13.7 °C 12.1 °C 1019.5 hPa Calm     90 % 0.3 mm 74.0 W/m2 BKN
10:01 13.8 °C 12.2 °C 1019.2 hPa Calm     90 % 0.3 mm 114.0 W/m2 FEW
10:06 13.8 °C 12.2 °C 1019.2 hPa Calm     90 % 0.3 mm 135.0 W/m2 CLR
10:11 13.9 °C 12.3 °C 1018.8 hPa Calm     90 % 0.3 mm 156.0 W/m2 CLR
10:12 13.9 °C 12.3 °C 1018.8 hPa Calm     90 % 0.3 mm 169.0 W/m2 CLR
10:17 14.0 °C 12.4 °C 1018.8 hPa Calm     90 % 0.3 mm 295.0 W/m2 CLR
10:22 14.2 °C 12.6 °C 1018.8 hPa Calm     90 % 0.3 mm 206.0 W/m2 CLR
10:27 14.3 °C 12.7 °C 1018.5 hPa Calm     90 % 0.5 mm 156.0 W/m2 RA
10:32 14.3 °C 12.6 °C 1018.5 hPa Calm     89 % 0.5 mm 246.0 W/m2 CLR
10:33 14.3 °C 12.6 °C 1018.5 hPa Calm     89 % 0.5 mm 320.0 W/m2 CLR
10:38 14.4 °C 12.7 °C 1018.5 hPa Calm     89 % 0.3 mm 223.0 W/m2 CLR
10:43 14.4 °C 12.7 °C 1018.5 hPa Calm     89 % 0.3 mm 248.0 W/m2 CLR
10:48 14.5 °C 12.7 °C 1018.2 hPa Calm     89 % 0.3 mm 229.0 W/m2 CLR
10:53 14.6 °C 12.6 °C 1018.5 hPa South 1.9 km/h 1.9 km/h 88 % 0.3 mm 207.0 W/m2 CLR
10:58 14.6 °C 12.6 °C 1018.8 hPa Calm     88 % 0.3 mm 214.0 W/m2 CLR
11:03 14.7 °C 12.9 °C 1018.8 hPa South 11.1 km/h 11.1 km/h 89 % 0.3 mm 132.0 W/m2 CLR
11:08 14.7 °C 12.9 °C 1018.8 hPa South 11.3 km/h 11.3 km/h 89 % 0.3 mm 107.0 W/m2 CLR
11:13 14.8 °C 13.0 °C 1018.8 hPa South 13.0 km/h 13.0 km/h 89 % 0.3 mm 88.0 W/m2 CLR
11:18 14.8 °C 13.1 °C 1018.8 hPa South 14.8 km/h 14.8 km/h 89 % 0.3 mm 77.0 W/m2 CLR
11:23 14.8 °C 13.1 °C 1018.8 hPa SSW 9.3 km/h 9.3 km/h 89 % 0.3 mm 63.0 W/m2 FEW
11:28 14.8 °C 13.1 °C 1019.2 hPa SSW 1.9 km/h 1.9 km/h 89 % 0.0 mm 42.0 W/m2 SCT
11:33 14.8 °C 13.1 °C 1018.8 hPa Calm     89 % 0.0 mm 54.0 W/m2 SCT
11:38 14.9 °C 13.1 °C 1018.8 hPa SW 5.6 km/h 5.6 km/h 89 % 0.0 mm 62.0 W/m2 SCT
11:43 14.9 °C 13.1 °C 1019.2 hPa Calm     89 % 0.0 mm 40.0 W/m2 SCT
11:48 14.9 °C 13.2 °C 1018.8 hPa Calm     89 % 0.0 mm 56.0 W/m2 SCT
11:53 15.0 °C 13.2 °C 1018.8 hPa WSW 1.9 km/h 1.9 km/h 89 % 0.0 mm 128.0 W/m2 SCT
11:58 15.1 °C 13.3 °C 1018.5 hPa SW 5.6 km/h 5.6 km/h 89 % 0.0 mm 146.0 W/m2 CLR
12:03 15.2 °C 13.4 °C 1018.2 hPa Calm     89 % 0.0 mm 186.0 W/m2 CLR
12:08 15.2 °C 13.4 °C 1018.2 hPa Calm     89 % 0.0 mm 174.0 W/m2 CLR
12:18 15.4 °C 13.6 °C 1017.8 hPa East 5.6 km/h 5.6 km/h 89 % 1.3 mm 125.0 W/m2 RA
12:23 15.2 °C 13.6 °C 1017.5 hPa ESE 11.1 km/h 11.1 km/h 90 % 2.0 mm 114.0 W/m2 RA
12:28 14.9 °C 13.3 °C 1017.2 hPa East 5.6 km/h   90 % 3.0 mm 132.0 W/m2 RA
12:33 14.9 °C 13.4 °C 1017.5 hPa Calm     91 % 3.3 mm 155.0 W/m2 RA
12:38 15.0 °C 13.6 °C 1017.8 hPa Calm     91 % 3.3 mm 199.0 W/m2 CLR
12:43 15.0 °C 13.6 °C 1017.8 hPa Calm     91 % 3.3 mm 223.0 W/m2 CLR
12:48 15.1 °C 13.7 °C 1017.8 hPa Calm     91 % 3.3 mm 320.0 W/m2 CLR
12:53 15.2 °C 13.7 °C 1017.8 hPa Calm     91 % 3.3 mm 364.0 W/m2 CLR
12:55 15.2 °C 13.8 °C 1017.8 hPa Calm     91 % 3.3 mm 387.0 W/m2 CLR
13:00 15.2 °C 13.8 °C 1017.8 hPa Calm     91 % 3.3 mm 176.0 W/m2 CLR
13:05 15.3 °C 13.9 °C 1017.8 hPa Calm     91 % 3.3 mm 148.0 W/m2 CLR
13:10 15.4 °C 13.9 °C 1017.8 hPa Calm     91 % 3.3 mm 132.0 W/m2 CLR
13:15 15.4 °C 14.0 °C 1017.8 hPa Calm     91 % 2.8 mm 213.0 W/m2 CLR
13:20 15.7 °C 14.3 °C 1017.5 hPa Calm     91 % 1.5 mm 434.0 W/m2 CLR
13:25 15.8 °C 14.4 °C 1017.5 hPa Calm     91 % 0.5 mm 271.0 W/m2 CLR
13:30 15.9 °C 14.3 °C 1017.5 hPa Calm     90 % 0.3 mm 309.0 W/m2 CLR
13:35 16.0 °C 14.3 °C 1017.5 hPa Calm     90 % 0.0 mm 434.0 W/m2 CLR
13:40 16.3 °C 14.6 °C 1017.5 hPa Calm     90 % 0.0 mm 304.0 W/m2 CLR
13:45 16.4 °C 14.6 °C 1017.5 hPa North 6.4 km/h 6.4 km/h 89 % 0.0 mm 223.0 W/m2 CLR
13:50 16.3 °C 14.3 °C 1017.5 hPa NNE 3.7 km/h   88 % 0.0 mm 127.0 W/m2 CLR
13:55 16.3 °C 14.3 °C 1017.5 hPa Calm     88 % 0.0 mm 98.0 W/m2 CLR
14:00 16.4 °C 14.6 °C 1017.2 hPa NE 9.3 km/h 9.3 km/h 89 % 0.0 mm 100.0 W/m2 CLR
14:05 16.3 °C 14.3 °C 1017.5 hPa NNE 1.9 km/h   88 % 0.0 mm 100.0 W/m2 CLR
14:10 16.3 °C 14.3 °C 1017.2 hPa NE 5.6 km/h 5.6 km/h 88 % 0.0 mm 134.0 W/m2 CLR
14:15 16.3 °C 14.5 °C 1017.2 hPa Calm     89 % 0.0 mm 257.0 W/m2 CLR
14:20 16.4 °C 14.6 °C 1016.8 hPa ENE 11.1 km/h 11.1 km/h 89 % 0.0 mm 466.0 W/m2 CLR
14:25 16.6 °C 14.8 °C 1016.8 hPa NE 9.3 km/h 9.3 km/h 89 % 0.0 mm 422.0 W/m2 CLR
14:30 16.7 °C 14.7 °C 1016.8 hPa ENE 7.4 km/h 7.4 km/h 88 % 0.0 mm 396.0 W/m2 CLR
14:35 16.7 °C 14.6 °C 1016.8 hPa ENE 5.6 km/h   87 % 0.0 mm 559.0 W/m2 CLR
14:40 16.8 °C 14.6 °C 1016.8 hPa NE 5.6 km/h 5.6 km/h 87 % 0.0 mm 522.0 W/m2 CLR
14:45 17.0 °C 14.8 °C 1016.5 hPa East 7.4 km/h 7.4 km/h 87 % 0.0 mm 519.0 W/m2 CLR
14:50 16.9 °C 14.8 °C 1016.5 hPa NE 11.3 km/h 11.3 km/h 87 % 0.0 mm 619.0 W/m2 CLR
14:55 17.1 °C 15.1 °C 1016.5 hPa NNE 8.0 km/h 8.0 km/h 88 % 0.0 mm 506.0 W/m2 CLR
15:00 17.2 °C 15.2 °C 1016.5 hPa Calm     88 % 0.0 mm 253.0 W/m2 CLR
15:05 17.2 °C 15.2 °C 1016.1 hPa Calm     88 % 0.0 mm 388.0 W/m2 CLR
15:10 17.3 °C 15.1 °C 1016.1 hPa ENE 5.6 km/h 5.6 km/h 87 % 0.0 mm 350.0 W/m2 CLR
15:15 17.4 °C 15.2 °C 1015.8 hPa Calm     87 % 0.0 mm 366.0 W/m2 CLR
15:20 17.5 °C 15.3 °C 1016.1 hPa NE 8.0 km/h 8.0 km/h 87 % 0.0 mm 306.0 W/m2 CLR
15:25 17.6 °C 15.6 °C 1016.1 hPa NE 9.3 km/h 9.3 km/h 88 % 0.0 mm 227.0 W/m2 CLR
15:30 17.6 °C 15.4 °C 1016.1 hPa ENE 5.6 km/h 5.6 km/h 87 % 0.0 mm 195.0 W/m2 CLR
15:35 17.6 °C 15.4 °C 1016.1 hPa NE 7.4 km/h 7.4 km/h 87 % 0.0 mm 172.0 W/m2 CLR
15:40 17.6 °C 15.4 °C 1016.1 hPa Calm     87 % 0.0 mm 193.0 W/m2 CLR
15:45 17.6 °C 15.6 °C 1015.8 hPa Calm     88 % 0.5 mm 258.0 W/m2 RA
15:50 17.6 °C 15.6 °C 1015.8 hPa ENE 4.8 km/h 4.8 km/h 88 % 0.5 mm 413.0 W/m2 CLR
15:55 17.6 °C 15.6 °C 1015.8 hPa ENE 7.4 km/h 7.4 km/h 88 % 0.5 mm 315.0 W/m2 CLR
16:00 17.6 °C 15.8 °C 1015.8 hPa Calm     89 % 0.5 mm 206.0 W/m2 CLR
16:05 17.6 °C 15.6 °C 1016.1 hPa Calm     88 % 0.5 mm 98.0 W/m2 CLR
16:10 17.6 °C 15.7 °C 1016.1 hPa Calm     89 % 0.5 mm 146.0 W/m2 CLR
16:15 17.5 °C 15.7 °C 1016.1 hPa Calm     89 % 0.5 mm 153.0 W/m2 CLR
16:20 17.6 °C 15.7 °C 1015.8 hPa Calm     89 % 0.5 mm 220.0 W/m2 CLR
16:25 17.6 °C 15.7 °C 1016.1 hPa Calm     89 % 0.5 mm 141.0 W/m2 CLR
16:30 17.5 °C 15.7 °C 1015.8 hPa Calm     89 % 0.5 mm 244.0 W/m2 CLR
16:35 17.6 °C 15.7 °C 1015.8 hPa Calm     89 % 0.5 mm 192.0 W/m2 CLR
16:40 17.7 °C 15.9 °C 1015.5 hPa Calm     89 % 0.5 mm 199.0 W/m2 CLR
16:45 17.8 °C 16.0 °C 1015.5 hPa ENE 5.6 km/h 5.6 km/h 89 % 0.0 mm 223.0 W/m2 CLR
16:50 17.8 °C 15.9 °C 1015.5 hPa NE 5.6 km/h 5.6 km/h 89 % 0.0 mm 176.0 W/m2 CLR
16:56 17.8 °C 15.8 °C 1015.5 hPa Calm     88 % 0.0 mm 174.0 W/m2 CLR
17:01 17.8 °C 16.0 °C 1015.5 hPa Calm     89 % 0.0 mm 134.0 W/m2 CLR
17:06 17.8 °C 15.8 °C 1015.5 hPa NE 9.3 km/h 9.3 km/h 88 % 0.0 mm 128.0 W/m2 CLR
17:11 17.7 °C 15.7 °C 1015.1 hPa North 14.8 km/h 14.8 km/h 88 % 0.0 mm 91.0 W/m2 CLR
17:16 17.5 °C 15.7 °C 1015.1 hPa North 14.8 km/h 14.8 km/h 89 % 0.0 mm 83.0 W/m2 CLR
17:21 17.4 °C 15.6 °C 1015.1 hPa North 11.3 km/h 11.3 km/h 89 % 0.0 mm 93.0 W/m2 CLR
17:26 17.3 °C 15.4 °C 1015.1 hPa North 5.6 km/h   89 % 0.0 mm 63.0 W/m2 FEW
17:31 17.3 °C 15.6 °C 1015.1 hPa North 9.7 km/h 9.7 km/h 90 % 0.0 mm 79.0 W/m2 FEW
17:36 17.3 °C 15.6 °C 1015.1 hPa North 11.1 km/h 11.1 km/h 90 % 0.0 mm 84.0 W/m2 FEW
17:41 17.2 °C 15.6 °C 1015.1 hPa NNW 9.3 km/h 9.3 km/h 90 % 0.0 mm 65.0 W/m2 FEW
17:46 17.1 °C 15.4 °C 1015.1 hPa North 11.1 km/h 11.1 km/h 90 % 0.0 mm 69.0 W/m2 FEW
17:51 17.1 °C 15.4 °C 1015.5 hPa North 9.3 km/h 9.3 km/h 90 % 0.0 mm 54.0 W/m2 SCT
17:56 17.1 °C 15.4 °C 1015.1 hPa NNW 6.4 km/h 6.4 km/h 90 % 0.0 mm 51.0 W/m2 SCT
18:01 17.1 °C 15.4 °C 1015.1 hPa NNW 9.3 km/h 9.3 km/h 90 % 0.0 mm 37.0 W/m2 SCT
18:06 17.0 °C 15.3 °C 1015.1 hPa Calm     90 % 0.0 mm 53.0 W/m2 BKN
18:11 17.0 °C 15.3 °C 1014.8 hPa Calm     90 % 0.0 mm 93.0 W/m2 SCT
18:16 17.0 °C 15.3 °C 1014.8 hPa Calm     90 % 0.0 mm 70.0 W/m2 FEW
18:21 17.0 °C 15.3 °C 1015.1 hPa Calm     90 % 0.0 mm 53.0 W/m2 FEW
18:26 17.0 °C 15.3 °C 1015.1 hPa NW 8.0 km/h 8.0 km/h 90 % 0.0 mm 63.0 W/m2 SCT
18:31 16.9 °C 15.2 °C 1014.8 hPa NNW 7.4 km/h 7.4 km/h 90 % 0.0 mm 72.0 W/m2 SCT
18:32 16.9 °C 15.2 °C 1015.1 hPa North 7.4 km/h 7.4 km/h 90 % 0.0 mm 63.0 W/m2 FEW
18:37 16.8 °C 15.2 °C 1015.1 hPa NNW 13.0 km/h 13.0 km/h 90 % 0.0 mm 49.0 W/m2 FEW
18:42 16.6 °C 14.9 °C 1015.1 hPa NNW 7.4 km/h 7.4 km/h 90 % 0.0 mm 53.0 W/m2 SCT
18:47 16.4 °C 14.7 °C 1015.1 hPa NNW 8.0 km/h 8.0 km/h 90 % 0.0 mm 69.0 W/m2 SCT
18:52 16.4 °C 14.9 °C 1014.8 hPa NNW 7.4 km/h 7.4 km/h 91 % 0.0 mm 60.0 W/m2 FEW
18:57 16.3 °C 14.8 °C 1014.8 hPa NNW 9.3 km/h 9.3 km/h 91 % 0.0 mm 30.0 W/m2 SCT
19:02 16.2 °C 14.8 °C 1015.1 hPa NW 9.3 km/h 9.3 km/h 91 % 0.0 mm 21.0 W/m2 BKN
19:07 16.2 °C 14.7 °C 1015.1 hPa NW 13.0 km/h 13.0 km/h 91 % 0.0 mm 25.0 W/m2 BKN
19:12 16.1 °C 14.6 °C 1015.1 hPa NW 11.1 km/h 11.1 km/h 91 % 0.0 mm 26.0 W/m2 BKN
19:13 16.1 °C 14.6 °C 1015.1 hPa NW 11.1 km/h 11.1 km/h 91 % 0.0 mm 26.0 W/m2 BKN
19:18 16.0 °C 14.6 °C 1015.1 hPa NNW 7.4 km/h 7.4 km/h 91 % 0.0 mm 16.0 W/m2 BKN
19:23 15.9 °C 14.5 °C 1015.1 hPa NW 11.1 km/h 11.1 km/h 91 % 0.0 mm 11.0 W/m2 BKN
19:28 15.9 °C 14.4 °C 1015.1 hPa North 14.8 km/h 14.8 km/h 91 % 0.0 mm 7.0 W/m2 BKN
19:33 15.8 °C 14.6 °C 1015.1 hPa NW 13.0 km/h 13.0 km/h 92 % 0.0 mm 9.0 W/m2 BKN
19:38 15.7 °C 14.4 °C 1015.1 hPa NNW 16.7 km/h 16.7 km/h 92 % 0.0 mm 7.0 W/m2 BKN
19:44 15.7 °C 14.4 °C 1015.1 hPa WNW 18.5 km/h 18.5 km/h 92 % 0.0 mm 0.0 W/m2 BKN
19:49 15.6 °C 14.3 °C 1015.1 hPa WNW 18.5 km/h 18.5 km/h 92 % 0.0 mm 0.0 W/m2 OVC
19:54 15.4 °C 14.1 °C 1015.5 hPa WSW 16.7 km/h 16.7 km/h 92 % 0.0 mm 0.0 W/m2 OVC
19:59 15.3 °C 14.0 °C 1015.5 hPa SW 11.1 km/h 11.1 km/h 92 % 0.8 mm 0.0 W/m2 RA
20:04 15.2 °C 13.9 °C 1015.5 hPa Calm   1.6 km/h 92 % 2.0 mm 0.0 W/m2 RA
20:09 15.2 °C 13.9 °C 1015.5 hPa WSW 16.7 km/h 16.7 km/h 92 % 3.0 mm 0.0 W/m2 RA
20:14 15.1 °C 13.8 °C 1015.1 hPa NW 16.1 km/h 16.1 km/h 92 % 3.3 mm 0.0 W/m2 RA
20:19 14.9 °C 13.6 °C 1015.1 hPa WNW 29.6 km/h 29.6 km/h 92 % 4.3 mm 0.0 W/m2 RA
20:24 14.8 °C 13.5 °C 1015.5 hPa NW 37.0 km/h 37.0 km/h 92 % 6.3 mm 0.0 W/m2 RA
20:29 14.8 °C 13.5 °C 1015.5 hPa WNW 38.9 km/h 38.9 km/h 92 % 7.4 mm 0.0 W/m2 RA
20:34 14.8 °C 13.6 °C 1015.5 hPa WNW 31.5 km/h 31.5 km/h 92 % 9.4 mm 0.0 W/m2 RA
20:39 14.9 °C 13.6 °C 1015.8 hPa ENE 37.0 km/h 37.0 km/h 92 % 13.2 mm 0.0 W/m2 RA
20:44 14.8 °C 13.6 °C 1015.8 hPa ENE 31.5 km/h 31.5 km/h 92 % 16.8 mm 0.0 W/m2 RA
20:49 14.8 °C 13.5 °C 1016.1 hPa WNW 30.6 km/h 30.6 km/h 92 % 18.3 mm 0.0 W/m2 RA
20:54 14.7 °C 13.4 °C 1016.1 hPa WNW 31.5 km/h 31.5 km/h 92 % 19.3 mm 0.0 W/m2 RA
20:59 14.7 °C 13.6 °C 1016.1 hPa WNW 29.6 km/h 29.6 km/h 93 % 19.0 mm 0.0 W/m2 RA
21:04 14.7 °C 13.4 °C 1016.5 hPa West 31.5 km/h 31.5 km/h 92 % 18.3 mm 0.0 W/m2 RA
21:09 14.7 °C 13.4 °C 1016.5 hPa ENE 24.1 km/h 24.1 km/h 92 % 18.5 mm 0.0 W/m2 RA
21:14 14.6 °C 13.3 °C 1016.5 hPa ENE 20.4 km/h 20.4 km/h 92 % 19.0 mm 0.0 W/m2 RA
21:19 14.6 °C 13.3 °C 1016.5 hPa ENE 13.0 km/h 13.0 km/h 92 % 18.3 mm 0.0 W/m2 RA
21:24 14.4 °C 13.2 °C 1016.8 hPa ENE 12.9 km/h 12.9 km/h 92 % 16.8 mm 0.0 W/m2 RA
21:29 14.3 °C 13.1 °C 1016.8 hPa West 11.1 km/h 11.1 km/h 92 % 16.3 mm 0.0 W/m2 RA
21:34 14.3 °C 13.0 °C 1016.5 hPa WSW 5.6 km/h 5.6 km/h 92 % 14.7 mm 0.0 W/m2 RA
21:39 14.2 °C 12.9 °C 1016.8 hPa Calm     92 % 10.9 mm 0.0 W/m2 RA
21:40 14.3 °C 13.0 °C 1016.8 hPa Calm     92 % 10.9 mm 0.0 W/m2 RA
21:45 14.2 °C 12.9 °C 1016.5 hPa Calm     92 % 8.6 mm 0.0 W/m2 RA
21:50 14.2 °C 12.9 °C 1016.5 hPa Calm     92 % 7.6 mm 0.0 W/m2 RA
21:55 14.2 °C 13.1 °C 1016.5 hPa Calm     93 % 7.1 mm 0.0 W/m2 RA
22:00 14.3 °C 13.2 °C 1016.5 hPa Calm     93 % 6.6 mm 0.0 W/m2 RA
22:05 14.3 °C 13.2 °C 1016.5 hPa Calm     93 % 6.3 mm 0.0 W/m2 RA
22:10 14.3 °C 13.2 °C 1016.5 hPa Calm     93 % 5.8 mm 0.0 W/m2 RA
22:15 14.3 °C 13.2 °C 1016.5 hPa Calm     93 % 5.1 mm 0.0 W/m2 RA
22:20 14.3 °C 13.2 °C 1016.5 hPa Calm     93 % 5.1 mm 0.0 W/m2 RA
22:25 14.2 °C 13.1 °C 1016.5 hPa Calm     93 % 4.6 mm 0.0 W/m2 RA
22:30 14.3 °C 13.2 °C 1016.5 hPa Calm     93 % 4.3 mm 0.0 W/m2 RA
22:35 14.3 °C 13.2 °C 1016.5 hPa Calm     93 % 3.8 mm 0.0 W/m2 CLR
22:40 14.2 °C 13.1 °C 1016.5 hPa Calm     93 % 3.3 mm 0.0 W/m2 CLR
22:45 14.2 °C 13.1 °C 1016.5 hPa Calm     93 % 3.0 mm 0.0 W/m2 RA
22:50 14.4 °C 13.3 °C 1016.5 hPa WNW 6.4 km/h 6.4 km/h 93 % 2.5 mm 0.0 W/m2 CLR
22:55 14.6 °C 13.4 °C 1016.8 hPa WNW 9.7 km/h 9.7 km/h 93 % 2.3 mm 0.0 W/m2 CLR
23:00 14.6 °C 13.4 °C 1016.8 hPa NW 16.7 km/h 16.7 km/h 93 % 1.5 mm 0.0 W/m2 CLR
23:05 14.4 °C 13.3 °C 1016.8 hPa NW 18.5 km/h 18.5 km/h 93 % 1.5 mm 0.0 W/m2 CLR
23:10 14.3 °C 13.2 °C 1016.8 hPa NW 18.5 km/h 18.5 km/h 93 % 1.0 mm 0.0 W/m2 CLR
23:15 14.3 °C 13.2 °C 1016.8 hPa NW 18.5 km/h 18.5 km/h 93 % 0.8 mm 0.0 W/m2 CLR
23:20 14.3 °C 13.2 °C 1016.8 hPa NW 5.6 km/h 5.6 km/h 93 % 0.5 mm 0.0 W/m2 CLR
23:25 14.4 °C 13.3 °C 1016.8 hPa NW 27.8 km/h 27.8 km/h 93 % 0.5 mm 0.0 W/m2 CLR
23:30 14.4 °C 13.3 °C 1016.8 hPa NW 14.8 km/h 14.8 km/h 93 % 0.3 mm 0.0 W/m2 CLR
23:35 14.4 °C 13.3 °C 1016.8 hPa WNW 9.7 km/h 9.7 km/h 93 % 0.3 mm 0.0 W/m2 CLR
23:40 14.4 °C 13.3 °C 1016.8 hPa WNW 9.7 km/h 9.7 km/h 93 % 0.3 mm 0.0 W/m2 CLR
23:45 14.4 °C 13.3 °C 1016.8 hPa NW 5.6 km/h 5.6 km/h 93 % 0.0 mm 0.0 W/m2 CLR
23:50 14.4 °C 13.3 °C 1016.8 hPa NW 17.7 km/h 17.7 km/h 93 % 0.0 mm 0.0 W/m2 CLR
23:55 14.4 °C 13.3 °C 1016.8 hPa WNW 9.7 km/h 9.7 km/h 93 % 0.0 mm 0.0 W/m2 CLR
Lo Temps de Massalio
Compliments of Weather Underground - 1.25 mb